N6GIW Weather Reports


time (UTC)temp
C
wind
direction
speed
KPH
gust
KPH
rain 1hr
cm
rain 24hr
cm
rain mn
cm
humidity
%
barometer
mb
20260509225004 33 185 14.5 22.5 0.00 0.00 0.00 9 1019.3
20260509224503 33 165 11.3 19.3 0.00 0.00 0.00 8 1019.5
20260509224004 33 190 11.3 19.3 0.00 0.00 0.00 8 1019.5
20260509223503 33 180 12.9 20.9 0.00 0.00 0.00 7 1019.6
20260509223004 33 180 14.5 27.4 0.00 0.00 0.00 7 1019.6
20260509222503 33 157 11.3 19.3 0.00 0.00 0.00 7 1019.8
20260509222003 33 175 14.5 19.3 0.00 0.00 0.00 8 1019.8
20260509221504 34 189 16.1 25.7 0.00 0.00 0.00 7 1019.8
20260509220504 34 188 11.3 32.2 0.00 0.00 0.00 7 1019.7
20260509220003 33 234 14.5 25.7 0.00 0.00 0.00 7 1019.9
20260509215504 34 210 11.3 19.3 0.00 0.00 0.00 7 1019.9
20260509215005 34 166 14.5 25.7 0.00 0.00 0.00 7 1019.9
20260509214503 33 239 17.7 24.1 0.00 0.00 0.00 7 1019.9
20260509214003 33 236 11.3 19.3 0.00 0.00 0.00 7 1020.0
20260509213003 33 202 6.4 14.5 0.00 0.00 0.00 8 1020.3
20260509212504 33 178 9.7 16.1 0.00 0.00 0.00 9 1020.4
20260509212003 33 213 16.1 32.2 0.00 0.00 0.00 9 1020.3
20260509211504 33 199 11.3 20.9 0.00 0.00 0.00 9 1020.3
20260509211004 33 176 8.0 22.5 0.00 0.00 0.00 9 1020.4
20260509210503 33 188 4.8 19.3 0.00 0.00 0.00 9 1020.5
20260509210003 33 150 9.7 19.3 0.00 0.00 0.00 9 1020.6
20260509205503 33 197 12.9 19.3 0.00 0.00 0.00 9 1020.6
20260509205003 33 127 3.2 11.3 0.00 0.00 0.00 10 1020.6
20260509204504 33 133 8.0 14.5 0.00 0.00 0.00 9 1020.6
20260509204004 33 67 4.8 11.3 0.00 0.00 0.00 10 1020.7
20260509203503 33 78 3.2 9.7 0.00 0.00 0.00 10 1020.8
20260509203003 33 112 6.4 12.9 0.00 0.00 0.00 10 1020.7
20260509202504 33 344 6.4 14.5 0.00 0.00 0.00 10 1020.7
20260509202004 33 320 8.0 12.9 0.00 0.00 0.00 10 1020.8
20260509201003 33 101 1.6 4.8 0.00 0.00 0.00 10 1020.9
20260509200003 32 14 1.6 4.8 0.00 0.00 0.00 11 1021.0
20260509195503 32 340 4.8 12.9 0.00 0.00 0.00 11 1021.0
20260509195004 32 71 6.4 11.3 0.00 0.00 0.00 11 1021.1
20260509194504 31 0 3.2 4.8 0.00 0.00 0.00 11 1021.2
20260509194003 31 13 4.8 12.9 0.00 0.00 0.00 11 1021.3
20260509193503 31 83 4.8 11.3 0.00 0.00 0.00 11 1021.4
20260509193003 31 335 6.4 14.5 0.00 0.00 0.00 11 1021.4
20260509191004 31 43 4.8 12.9 0.00 0.00 0.00 12 1021.7
20260509190003 31 77 3.2 12.9 0.00 0.00 0.00 12 1021.8
20260509185503 31 31 6.4 16.1 0.00 0.00 0.00 12 1021.8
20260509185004 31 9 9.7 19.3 0.00 0.00 0.00 12 1021.7
20260509184003 31 355 9.7 19.3 0.00 0.00 0.00 12 1021.8
20260509183503 31 44 3.2 12.9 0.00 0.00 0.00 13 1021.8
20260509183004 30 55 8.0 16.1 0.00 0.00 0.00 13 1021.8
20260509182504 30 25 8.0 19.3 0.00 0.00 0.00 12 1021.8
20260509182003 30 23 8.0 16.1 0.00 0.00 0.00 13 1021.8
20260509181503 30 28 4.8 11.3 0.00 0.00 0.00 12 1021.8
20260509181003 30 16 6.4 12.9 0.00 0.00 0.00 13 1021.8
20260509180504 30 21 6.4 16.1 0.00 0.00 0.00 13 1021.8
20260509180003 30 74 4.8 19.3 0.00 0.00 0.00 13 1021.8
20260509175004 30 343 8.0 12.9 0.00 0.00 0.00 13 1021.7
20260509174503 30 26 1.6 19.3 0.00 0.00 0.00 13 1021.7
20260509173503 30 46 4.8 14.5 0.00 0.00 0.00 13 1021.8
20260509173003 29 332 6.4 12.9 0.00 0.00 0.00 13 1021.8
20260509172003 30 36 9.7 16.1 0.00 0.00 0.00 13 1021.9
20260509171503 29 37 4.8 16.1 0.00 0.00 0.00 13 1021.9
20260509171003 29 50 6.4 16.1 0.00 0.00 0.00 13 1021.8
20260509170504 30 42 8.0 16.1 0.00 0.00 0.00 13 1021.7
20260509170003 29 28 6.4 14.5 0.00 0.00 0.00 13 1021.7
20260509165504 29 49 3.2 8.0 0.00 0.00 0.00 13 1021.5
20260509165004 29 330 4.8 8.0 0.00 0.00 0.00 13 1021.5
20260509164503 28 251 1.6 4.8 0.00 0.00 0.00 13 1021.5
20260509164003 28 196 1.6 9.7 0.00 0.00 0.00 13 1021.5
20260509163003 28 142 3.2 9.7 0.00 0.00 0.00 13 1021.4
20260509162503 28 95 0.0 4.8 0.00 0.00 0.00 14 1021.4
20260509162004 27 247 0.0 3.2 0.00 0.00 0.00 14 1021.3
20260509161504 27 190 1.6 11.3 0.00 0.00 0.00 14 1021.4
20260509161004 27 155 1.6 14.5 0.00 0.00 0.00 14 1021.3
20260509160004 27 161 3.2 14.5 0.00 0.00 0.00 14 1021.3
20260509155504 27 146 4.8 9.7 0.00 0.00 0.00 14 1021.4
20260509155003 27 132 1.6 8.0 0.00 0.00 0.00 15 1021.5
20260509154503 26 144 3.2 8.0 0.00 0.00 0.00 15 1021.4
20260509153504 26 141 4.8 11.3 0.00 0.00 0.00 15 1021.4
20260509153004 26 120 4.8 11.3 0.00 0.00 0.00 15 1021.5
20260509152003 26 113 3.2 9.7 0.00 0.00 0.00 15 1021.4
20260509150503 26 147 1.6 4.8 0.00 0.00 0.00 15 1021.2
20260509150004 25 171 1.6 4.8 0.00 0.00 0.00 15 1021.1
20260509145504 25 197 1.6 4.8 0.00 0.00 0.00 15 1021.2
20260509144503 24 231 0.0 3.2 0.00 0.00 0.00 16 1021.3
20260509144004 23 243 0.0 1.6 0.00 0.00 0.00 17 1021.3
20260509143503 23 243 0.0 0.0 0.00 0.00 0.00 17 1021.2
20260509143004 23 243 0.0 1.6 0.00 0.00 0.00 17 1021.2
20260509142504 22 243 0.0 1.6 0.00 0.00 0.00 17 1021.3
20260509142003 22 243 0.0 0.0 0.00 0.00 0.00 17 1021.2
20260509141504 22 243 0.0 0.0 0.00 0.00 0.00 18 1021.2
20260509135503 20 243 1.6 4.8 0.00 0.00 0.00 21 1021.0
20260509135004 20 242 1.6 4.8 0.00 0.00 0.00 21 1020.9
20260509134503 19 242 1.6 4.8 0.00 0.00 0.00 21 1020.8
20260509134003 19 241 0.0 3.2 0.00 0.00 0.00 22 1020.9
20260509133504 18 240 3.2 8.0 0.00 0.00 0.00 22 1020.6
20260509133003 17 261 3.2 4.8 0.00 0.00 0.00 23 1020.6
20260509132504 17 236 0.0 3.2 0.00 0.00 0.00 24 1020.6
20260509132003 17 235 0.0 3.2 0.00 0.00 0.00 24 1020.6
20260509131503 17 235 0.0 1.6 0.00 0.00 0.00 24 1020.4
20260509130503 17 235 0.0 3.2 0.00 0.00 0.00 24 1020.4
20260509130003 16 235 1.6 4.8 0.00 0.00 0.00 24 1020.3
20260509125503 16 238 1.6 3.2 0.00 0.00 0.00 25 1020.3
20260509125004 16 236 1.6 3.2 0.00 0.00 0.00 25 1020.2
20260509124503 16 236 0.0 1.6 0.00 0.00 0.00 25 1020.2
20260509124004 16 236 0.0 1.6 0.00 0.00 0.00 25 1020.1
20260509123503 16 236 0.0 1.6 0.00 0.00 0.00 25 1020.1
20260509123005 16 236 0.0 1.6 0.00 0.00 0.00 25 1019.9
20260509122504 16 236 0.0 0.0 0.00 0.00 0.00 25 1020.1
20260509121503 16 236 0.0 1.6 0.00 0.00 0.00 25 1020.1
20260509121004 16 236 0.0 3.2 0.00 0.00 0.00 25 1020.2
20260509120503 16 236 0.0 3.2 0.00 0.00 0.00 25 1020.1
20260509120004 16 236 0.0 3.2 0.00 0.00 0.00 25 1020.1
20260509115504 16 236 0.0 0.0 0.00 0.00 0.00 25 1020.1
20260509114503 16 236 0.0 3.2 0.00 0.00 0.00 25 1020.1
20260509114004 16 236 1.6 3.2 0.00 0.00 0.00 25 1020.1
20260509113505 17 235 0.0 0.0 0.00 0.00 0.00 24 1020.1
20260509112504 17 234 1.6 3.2 0.00 0.00 0.00 24 1020.1
20260509112003 17 234 0.0 3.2 0.00 0.00 0.00 23 1020.2
20260509111504 17 234 0.0 1.6 0.00 0.00 0.00 23 1020.1
20260509111003 18 234 0.0 3.2 0.00 0.00 0.00 23 1020.1
20260509110504 18 235 1.6 4.8 0.00 0.00 0.00 23 1020.2
20260509110003 18 244 4.8 11.3 0.00 0.00 0.00 22 1020.2
20260509105503 18 246 6.4 12.9 0.00 0.00 0.00 22 1020.2
20260509105004 18 263 4.8 9.7 0.00 0.00 0.00 23 1020.1
20260509104504 18 255 4.8 8.0 0.00 0.00 0.00 23 1020.1
20260509104003 18 238 3.2 8.0 0.00 0.00 0.00 23 1020.1
20260509103004 17 242 0.0 0.0 0.00 0.00 0.00 25 1020.2
20260509102004 16 244 0.0 0.0 0.00 0.00 0.00 25 1020.3
20260509101504 16 245 0.0 0.0 0.00 0.00 0.00 25 1020.3
20260509101004 16 245 0.0 0.0 0.00 0.00 0.00 25 1020.3
20260509100003 16 245 0.0 0.0 0.00 0.00 0.00 24 1020.3
20260509095004 16 245 0.0 0.0 0.00 0.00 0.00 25 1020.4
20260509094004 16 245 0.0 0.0 0.00 0.00 0.00 24 1020.4
20260509093504 16 245 0.0 0.0 0.00 0.00 0.00 24 1020.4
20260509092503 17 245 0.0 0.0 0.00 0.00 0.00 23 1020.5
20260509092004 17 245 0.0 0.0 0.00 0.00 0.00 23 1020.5
20260509091503 17 245 0.0 1.6 0.00 0.00 0.00 23 1020.5
20260509091003 18 245 0.0 0.0 0.00 0.00 0.00 22 1020.6
20260509090503 18 245 0.0 1.6 0.00 0.00 0.00 22 1020.5
20260509085504 18 245 0.0 3.2 0.00 0.00 0.00 22 1020.6
20260509085004 18 248 0.0 3.2 0.00 0.00 0.00 22 1020.7
20260509084503 19 248 0.0 4.8 0.00 0.00 0.00 21 1020.6
20260509084004 19 263 0.0 4.8 0.00 0.00 0.00 21 1020.7
20260509083504 19 249 0.0 3.2 0.00 0.00 0.00 21 1020.6
20260509083003 19 246 0.0 1.6 0.00 0.00 0.00 21 1020.6
20260509082504 20 248 0.0 1.6 0.00 0.00 0.00 20 1020.9
20260509082004 20 239 0.0 0.0 0.00 0.00 0.00 20 1020.9
20260509081504 20 236 0.0 0.0 0.00 0.00 0.00 20 1020.9
20260509081005 20 240 0.0 1.6 0.00 0.00 0.00 20 1021.0
20260509075503 19 227 0.0 0.0 0.00 0.00 0.00 21 1020.9
20260509075004 19 227 0.0 3.2 0.00 0.00 0.00 21 1020.9
20260509074504 19 227 0.0 0.0 0.00 0.00 0.00 20 1021.1
20260509074004 20 227 0.0 0.0 0.00 0.00 0.00 20 1021.0
20260509073505 20 227 0.0 0.0 0.00 0.00 0.00 21 1021.0
20260509073004 20 227 0.0 0.0 0.00 0.00 0.00 21 1021.0
20260509072504 20 232 0.0 0.0 0.00 0.00 0.00 21 1021.0
20260509072003 20 229 0.0 0.0 0.00 0.00 0.00 21 1021.1
20260509071504 20 228 0.0 0.0 0.00 0.00 0.00 21 1021.1
20260509071003 19 229 0.0 0.0 0.00 0.00 0.00 21 1021.1
20260509070504 20 229 0.0 0.0 0.00 0.00 0.00 21 1021.2
20260509070004 19 229 0.0 0.0 0.00 0.00 0.00 22 1021.2
20260509065504 19 229 0.0 0.0 0.00 0.00 0.00 22 1021.2
20260509065004 19 229 0.0 0.0 0.00 0.00 0.00 23 1021.2
20260509064503 18 228 0.0 0.0 0.00 0.00 0.00 23 1021.3
20260509064003 19 229 0.0 0.0 0.00 0.00 0.00 23 1021.3
20260509062504 19 225 0.0 0.0 0.00 0.00 0.00 24 1021.2
20260509062004 18 223 0.0 0.0 0.00 0.00 0.00 24 1021.2
20260509061503 18 201 0.0 0.0 0.00 0.00 0.00 24 1021.1
20260509060503 18 198 0.0 0.0 0.00 0.00 0.00 25 1021.2
20260509060005 18 200 0.0 0.0 0.00 0.00 0.00 24 1021.1
20260509055504 18 259 0.0 0.0 0.00 0.00 0.00 24 1021.2
20260509055005 18 259 0.0 0.0 0.00 0.00 0.00 24 1021.2
20260509054503 19 259 0.0 0.0 0.00 0.00 0.00 24 1021.2
20260509054004 19 260 0.0 0.0 0.00 0.00 0.00 24 1021.2
20260509053504 20 260 0.0 0.0 0.00 0.00 0.00 24 1021.2
20260509052504 20 260 0.0 0.0 0.00 0.00 0.00 24 1021.2
20260509052005 20 260 0.0 0.0 0.00 0.00 0.00 23 1021.2
20260509051504 20 260 0.0 0.0 0.00 0.00 0.00 23 1021.1
20260509051003 20 260 0.0 0.0 0.00 0.00 0.00 22 1021.0
20260509050504 21 261 0.0 0.0 0.00 0.00 0.00 23 1021.0
20260509045503 21 261 0.0 0.0 0.00 0.00 0.00 23 1021.3
20260509045004 21 261 0.0 0.0 0.00 0.00 0.00 25 1021.2
20260509044504 22 261 0.0 0.0 0.00 0.00 0.00 26 1021.2
20260509043503 22 261 0.0 0.0 0.00 0.00 0.00 24 1021.1
20260509043004 22 261 0.0 0.0 0.00 0.00 0.00 24 1021.0
20260509042504 22 261 0.0 0.0 0.00 0.00 0.00 24 1020.8
20260509042004 22 261 0.0 0.0 0.00 0.00 0.00 24 1020.8
20260509041505 23 262 0.0 0.0 0.00 0.00 0.00 24 1020.7
20260509041004 23 263 0.0 0.0 0.00 0.00 0.00 24 1020.8
20260509040503 23 263 0.0 0.0 0.00 0.00 0.00 25 1020.7
20260509035504 25 288 0.0 0.0 0.00 0.00 0.00 24 1020.7
20260509035003 25 11 0.0 0.0 0.00 0.00 0.00 24 1020.7
20260509034504 25 13 0.0 0.0 0.00 0.00 0.00 25 1020.6
20260509034004 25 325 0.0 0.0 0.00 0.00 0.00 25 1020.6
20260509033503 25 300 0.0 0.0 0.00 0.00 0.00 25 1020.4
20260509033004 25 275 0.0 0.0 0.00 0.00 0.00 25 1020.3
20260509032504 25 250 0.0 0.0 0.00 0.00 0.00 25 1020.3
20260509032004 26 240 0.0 0.0 0.00 0.00 0.00 26 1020.3
20260509030505 26 214 0.0 0.0 0.00 0.00 0.00 26 1020.1
20260509025503 26 222 0.0 0.0 0.00 0.00 0.00 25 1019.9
20260509025003 26 227 0.0 0.0 0.00 0.00 0.00 25 1019.9
20260509024503 27 240 0.0 0.0 0.00 0.00 0.00 24 1019.8
20260509024004 27 224 0.0 9.7 0.00 0.00 0.00 24 1019.8
20260509023504 27 223 0.0 9.7 0.00 0.00 0.00 24 1019.8
20260509023004 27 230 0.0 0.0 0.00 0.00 0.00 24 1019.8
20260509022504 27 216 0.0 0.0 0.00 0.00 0.00 24 1019.7
20260509022003 28 213 0.0 16.1 0.00 0.00 0.00 24 1019.7
20260509021503 28 211 11.3 20.9 0.00 0.00 0.00 23 1019.7
20260509021003 28 215 11.3 19.3 0.00 0.00 0.00 23 1019.8
20260509020503 28 204 16.1 24.1 0.00 0.00 0.00 23 1019.8
20260509020004 28 216 14.5 24.1 0.00 0.00 0.00 23 1019.8
20260509015504 29 214 14.5 24.1 0.00 0.00 0.00 22 1019.7
20260509015004 29 208 14.5 25.7 0.00 0.00 0.00 21 1019.7
20260509014504 30 206 16.1 22.5 0.00 0.00 0.00 20 1019.7
20260509014004 30 211 14.5 22.5 0.00 0.00 0.00 18 1019.7
20260509013503 30 224 16.1 27.4 0.00 0.00 0.00 18 1019.7
20260509013004 30 209 14.5 20.9 0.00 0.00 0.00 16 1019.8
20260509012504 30 216 14.5 22.5 0.00 0.00 0.00 14 1019.7
20260509012003 30 217 16.1 24.1 0.00 0.00 0.00 15 1019.8
20260509011504 31 216 14.5 22.5 0.00 0.00 0.00 16 1019.8
20260509011004 31 201 16.1 29.0 0.00 0.00 0.00 16 1019.6
20260509010504 31 206 16.1 22.5 0.00 0.00 0.00 14 1019.8
20260509010003 31 215 17.7 24.1 0.00 0.00 0.00 14 1019.8
20260509005504 31 216 14.5 20.9 0.00 0.00 0.00 13 1019.7
20260509005004 31 215 17.7 27.4 0.00 0.00 0.00 12 1019.8
20260509004003 31 207 19.3 27.4 0.00 0.00 0.00 13 1020.1
20260509003504 32 202 14.5 24.1 0.00 0.00 0.00 12 1020.1
20260509003003 32 210 16.1 22.5 0.00 0.00 0.00 12 1020.2
20260509002503 32 210 16.1 25.7 0.00 0.00 0.00 11 1020.0
20260509002003 32 203 19.3 25.7 0.00 0.00 0.00 11 1020.2
20260509001504 32 223 14.5 24.1 0.00 0.00 0.00 11 1020.2
20260509000504 32 210 14.5 24.1 0.00 0.00 0.00 11 1020.4
20260509000003 32 215 14.5 24.1 0.00 0.00 0.00 10 1020.3
20260508235503 32 191 16.1 25.7 0.00 0.00 0.00 10 1020.3
20260508235004 32 214 14.5 22.5 0.00 0.00 0.00 10 1020.4
20260508234504 32 198 16.1 22.5 0.00 0.00 0.00 9 1020.3
20260508234003 33 223 14.5 25.7 0.00 0.00 0.00 10 1020.4
20260508233503 32 209 11.3 22.5 0.00 0.00 0.00 10 1020.4
20260508232503 33 181 20.9 29.0 0.00 0.00 0.00 10 1020.3
20260508232004 33 217 17.7 24.1 0.00 0.00 0.00 9 1020.4
20260508231504 33 195 16.1 25.7 0.00 0.00 0.00 9 1020.5
20260508231003 33 210 14.5 24.1 0.00 0.00 0.00 10 1020.6
20260508230504 33 200 20.9 29.0 0.00 0.00 0.00 9 1020.5
20260508225503 33 188 16.1 27.4 0.00 0.00 0.00 9 1020.6